HVN260 VVTS-VVTS

Flight info

Callsign HVN260
Flight time 0h 21m
Altitude 1500
Route TRAFFIC PATTERN
Aircraft A320/M-SDE3FGHIRWY/LB1

Departure

Time 2026-05-07 15:53
Airport Tan Son Nhat International Airport (VVTS)

Arrival

Time 2026-05-07 16:15
Airport Tan Son Nhat International Airport (VVTS)
Time Latitude Longitude Altitude Speed Heading
2026-05-07 15:29 10.81869 106.66226 27 ft 0 kts
2026-05-07 15:44 10.81874 106.66227 37 ft 1 kts
2026-05-07 15:44 10.81890 106.66229 37 ft 6 kts
2026-05-07 15:45 10.81941 106.66281 37 ft 16 kts 68°
2026-05-07 15:45 10.81993 106.66422 37 ft 26 kts 70°
2026-05-07 15:45 10.82055 106.66584 37 ft 18 kts 69°
2026-05-07 15:45 10.82104 106.66718 37 ft 22 kts 70°
2026-05-07 15:46 10.82203 106.66976 37 ft 13 kts 69°
2026-05-07 15:46 10.82276 106.67000 37 ft 0 kts 340°
2026-05-07 15:48 10.82287 106.66996 37 ft 5 kts 339°
2026-05-07 15:48 10.82318 106.66970 37 ft 6 kts 320°
2026-05-07 15:48 10.82352 106.66939 37 ft 7 kts 309°
2026-05-07 15:48 10.82352 106.66901 37 ft 0 kts 249°
2026-05-07 15:53 10.82339 106.66865 37 ft 28 kts 249°
2026-05-07 15:53 10.82107 106.66254 36 ft 151 kts 249°
2026-05-07 15:53 10.81661 106.65049 519 ft 200 kts 249°
2026-05-07 15:53 10.81154 106.63667 1483 ft 218 kts 246°
2026-05-07 15:54 10.80633 106.62247 1540 ft 208 kts 246°
2026-05-07 15:54 10.80142 106.60895 1500 ft 199 kts 246°
2026-05-07 15:54 10.79726 106.59551 1504 ft 200 kts 256°
2026-05-07 15:54 10.79868 106.58160 1494 ft 201 kts 296°
2026-05-07 15:55 10.80804 106.57139 1521 ft 199 kts 331°
2026-05-07 15:55 10.82027 106.56489 1515 ft 198 kts 340°
2026-05-07 15:55 10.83338 106.56301 1499 ft 189 kts 18°
2026-05-07 15:55 10.84545 106.56787 1514 ft 188 kts 25°
2026-05-07 15:56 10.85866 106.56830 1516 ft 197 kts 348°
2026-05-07 15:56 10.87149 106.56358 1509 ft 199 kts 340°
2026-05-07 15:56 10.88426 106.55803 1505 ft 201 kts 339°
2026-05-07 15:56 10.89733 106.55323 1497 ft 198 kts 357°
2026-05-07 15:57 10.91018 106.55583 1500 ft 187 kts 37°
2026-05-07 15:57 10.91832 106.56555 1517 ft 180 kts 66°
2026-05-07 15:57 10.92340 106.57723 1508 ft 180 kts 72°
2026-05-07 15:57 10.92798 106.58911 1503 ft 181 kts 72°
2026-05-07 15:58 10.93248 106.60101 1502 ft 180 kts 72°
2026-05-07 15:58 10.93690 106.61275 1501 ft 174 kts 72°
2026-05-07 15:58 10.94111 106.62393 1499 ft 166 kts 73°
2026-05-07 15:58 10.94522 106.63489 1508 ft 164 kts 72°
2026-05-07 15:59 10.94926 106.64567 1504 ft 162 kts 72°
2026-05-07 15:59 10.95325 106.65633 1500 ft 162 kts 72°
2026-05-07 15:59 10.95729 106.66716 1506 ft 162 kts 73°
2026-05-07 15:59 10.96129 106.67787 1505 ft 162 kts 73°
2026-05-07 16:00 10.96528 106.68858 1504 ft 162 kts 73°
2026-05-07 16:00 10.96927 106.69930 1508 ft 162 kts 74°
2026-05-07 16:00 10.96977 106.71025 1491 ft 157 kts 113°
2026-05-07 16:00 10.96247 106.71822 1507 ft 158 kts 148°
2026-05-07 16:01 10.95246 106.72306 1515 ft 159 kts 155°
2026-05-07 16:01 10.94258 106.72709 1522 ft 152 kts 156°
2026-05-07 16:01 10.93287 106.73095 1507 ft 148 kts 156°
2026-05-07 16:01 10.92329 106.73474 1508 ft 147 kts 155°
2026-05-07 16:02 10.91392 106.73845 1502 ft 141 kts 155°
2026-05-07 16:02 10.90489 106.74202 1493 ft 138 kts 155°
2026-05-07 16:02 10.89594 106.74557 1504 ft 138 kts 155°
2026-05-07 16:02 10.88699 106.74912 1503 ft 138 kts 155°
2026-05-07 16:03 10.87802 106.75267 1505 ft 138 kts 155°
2026-05-07 16:03 10.86854 106.75462 1498 ft 142 kts 178°
2026-05-07 16:03 10.85900 106.75175 1498 ft 148 kts 206°
2026-05-07 16:03 10.85185 106.74403 1445 ft 156 kts 240°
2026-05-07 16:04 10.84788 106.73365 1317 ft 157 kts 245°
2026-05-07 16:04 10.84415 106.72371 1161 ft 145 kts 245°
2026-05-07 16:04 10.84064 106.71441 974 ft 137 kts 244°
2026-05-07 16:04 10.83727 106.70549 805 ft 133 kts 245°
2026-05-07 16:05 10.83403 106.69691 659 ft 130 kts 247°
2026-05-07 16:05 10.83082 106.68842 456 ft 128 kts 245°
2026-05-07 16:05 10.82764 106.68002 284 ft 128 kts 246°
2026-05-07 16:05 10.82451 106.67159 113 ft 127 kts 246°
2026-05-07 16:06 10.82134 106.66328 38 ft 119 kts 249°
2026-05-07 16:06 10.81870 106.65629 38 ft 99 kts 249°
2026-05-07 16:06 10.81524 106.64715 111 ft 180 kts 247°
2026-05-07 16:06 10.81062 106.63499 1191 ft 188 kts 248°
2026-05-07 16:07 10.80650 106.62262 2056 ft 190 kts 249°
2026-05-07 16:07 10.80225 106.60938 1832 ft 199 kts 249°
2026-05-07 16:07 10.79789 106.59557 1280 ft 200 kts 249°
2026-05-07 16:07 10.79397 106.58235 1308 ft 192 kts 253°
2026-05-07 16:08 10.79481 106.56896 1379 ft 195 kts 293°
2026-05-07 16:08 10.80375 106.55881 1446 ft 197 kts 331°
2026-05-07 16:08 10.81622 106.55370 1482 ft 194 kts 358°
2026-05-07 16:08 10.82878 106.55648 1497 ft 183 kts 39°
2026-05-07 16:09 10.83647 106.56609 1518 ft 174 kts 68°
2026-05-07 16:09 10.84131 106.57732 1510 ft 173 kts 72°
2026-05-07 16:09 10.84571 106.58875 1511 ft 174 kts 72°
2026-05-07 16:09 10.85006 106.60030 1503 ft 174 kts 73°
2026-05-07 16:10 10.85434 106.61175 1507 ft 173 kts 73°
2026-05-07 16:10 10.85860 106.62317 1508 ft 173 kts 73°
2026-05-07 16:10 10.86288 106.63467 1509 ft 174 kts 73°
2026-05-07 16:10 10.86716 106.64617 1513 ft 174 kts 72°
2026-05-07 16:11 10.87145 106.65768 1505 ft 173 kts 73°
2026-05-07 16:11 10.87573 106.66920 1516 ft 175 kts 73°
2026-05-07 16:11 10.88004 106.68077 1487 ft 173 kts 72°
2026-05-07 16:11 10.88393 106.69208 1134 ft 171 kts 82°
2026-05-07 16:12 10.88144 106.70312 1046 ft 163 kts 129°
2026-05-07 16:12 10.87186 106.71027 1064 ft 176 kts 151°
2026-05-07 16:12 10.86029 106.71404 966 ft 173 kts 173°
2026-05-07 16:12 10.84909 106.71241 894 ft 156 kts 198°
2026-05-07 16:13 10.84024 106.70666 775 ft 147 kts 222°
2026-05-07 16:13 10.83464 106.69841 660 ft 137 kts 243°
2026-05-07 16:13 10.83135 106.68976 494 ft 128 kts 248°
2026-05-07 16:13 10.82818 106.68135 336 ft 126 kts 245°
2026-05-07 16:14 10.82506 106.67306 156 ft 125 kts 247°
2026-05-07 16:14 10.82196 106.66488 39 ft 120 kts 246°
2026-05-07 16:14 10.81951 106.65844 40 ft 73 kts 249°
2026-05-07 16:14 10.81809 106.65470 38 ft 51 kts 248°
2026-05-07 16:15 10.81701 106.65185 39 ft 27 kts 244°
2026-05-07 16:15 10.81575 106.65039 39 ft 29 kts 217°
2026-05-07 16:15 10.81485 106.65071 38 ft 19 kts 81°
2026-05-07 16:15 10.81536 106.65209 38 ft 23 kts 70°
2026-05-07 16:16 10.81597 106.65370 37 ft 26 kts 69°
2026-05-07 16:16 10.81667 106.65556 36 ft 32 kts 68°
2026-05-07 16:16 10.81725 106.65739 37 ft 21 kts 97°
2026-05-07 16:16 10.81685 106.65897 37 ft 25 kts 79°
2026-05-07 16:17 10.81726 106.66013 37 ft 12 kts 69°
2026-05-07 16:17 10.81739 106.66049 36 ft 5 kts 70°
2026-05-07 16:17 10.81763 106.66108 37 ft 10 kts 69°
2026-05-07 16:17 10.81729 106.66166 37 ft 13 kts 155°
2026-05-07 16:18 10.81696 106.66177 37 ft 0 kts 160°
2026-05-07 16:18 10.81687 106.66181 37 ft 0 kts 160°
2026-05-07 16:18 10.81686 106.66181 37 ft 0 kts 160°